This is the latest recevied weather packets stored in our database for station/object W0AKY-13. If no packets are shown the sender has not sent any weather packets the latest 10 day(s).
| Time | Temp. | Humidity | Pressure | Rain* | Wind** | Luminosity | Snow |
|---|---|---|---|---|---|---|---|
| 1777977877 | 9.44° C | 88% | 1011.9 hPa | 0 mm | - | 0 W/m² | - |
| 1777977573 | 9.44° C | 87% | 1012.3 hPa | 0 mm | - | 0 W/m² | - |
| 1777977270 | 9.44° C | 87% | 1012.4 hPa | 0 mm | - | 0 W/m² | - |
| 1777976967 | 9.44° C | 86% | 1012.2 hPa | 0 mm | - | 0 W/m² | - |
| 1777976665 | 9.44° C | 88% | 1012.4 hPa | 0 mm | - | 0 W/m² | - |
| 1777976361 | 9.44° C | 88% | 1012.2 hPa | 0 mm | - | 0 W/m² | - |
| 1777976061 | 8.89° C | 88% | 1012.2 hPa | 0 mm | - | 0 W/m² | - |
| 1777975756 | 8.89° C | 89% | 1012.2 hPa | 0 mm | - | 0 W/m² | - |
| 1777975453 | 8.89° C | 90% | 1012.3 hPa | 0 mm | - | 0 W/m² | - |
| 1777975149 | 8.89° C | 91% | 1012.2 hPa | 0 mm | - | 0 W/m² | - |
| 1777974846 | 9.44° C | 91% | 1012.4 hPa | 0 mm | - | 0 W/m² | - |
| 1777974542 | 9.44° C | 90% | 1012.5 hPa | 0 mm | - | 0 W/m² | - |
| 1777974240 | 8.89° C | 89% | 1012.5 hPa | 0 mm | - | 0 W/m² | - |
| 1777973935 | 8.89° C | 89% | 1012.6 hPa | 0 mm | - | 0 W/m² | - |
| 1777973633 | 8.89° C | 89% | 1012.7 hPa | 0 mm | - | 0 W/m² | - |
| 1777973330 | 8.89° C | 89% | 1012.6 hPa | 0 mm | - | 0 W/m² | - |
| 1777973028 | 8.89° C | 89% | 1012.8 hPa | 0 mm | - | 0 W/m² | - |
| 1777972725 | 9.44° C | 88% | 1012.6 hPa | 0 mm | - | 0 W/m² | - |
| 1777972423 | 9.44° C | 87% | 1012.2 hPa | 0 mm | - | 0 W/m² | - |
| 1777972121 | 9.44° C | 86% | 1012.2 hPa | 0 mm | - | 0 W/m² | - |
| 1777971818 | 9.44° C | 85% | 1012.2 hPa | 0 mm | - | 0 W/m² | - |
| 1777971515 | 9.44° C | 83% | 1012 hPa | 0 mm | - | 0 W/m² | - |
| 1777971213 | 9.44° C | 84% | 1011.9 hPa | 0 mm | - | 0 W/m² | - |
| 1777970911 | 9.44° C | 84% | 1012.1 hPa | 0 mm | - | 0 W/m² | - |
| 1777970609 | 9.44° C | 81% | 1012.2 hPa | 0 mm | - | 0 W/m² | - |
* Rain latest hour (hover to see other rain measurements)
** Current wind speed in m/s (hover to see current wind gust speed)